This is the latest recevied weather packets stored in our database for station/object PP5FMM-13. If no packets are shown the sender has not sent any weather packets the latest 10 day(s).
| Time | Temp. | Humidity | Pressure | Rain* | Wind** | Luminosity | Snow |
|---|---|---|---|---|---|---|---|
| 1777813232 | 26.67° C | 44% | 1024.7 hPa | - | - | - | - |
| 1777812932 | 26.67° C | 44% | 1024.7 hPa | - | - | - | - |
| 1777812632 | 26.11° C | 43% | 1024.7 hPa | - | - | - | - |
| 1777812332 | 25.56° C | 43% | 1024.6 hPa | - | - | - | - |
| 1777812032 | 26.11° C | 43% | 1024.5 hPa | - | - | - | - |
| 1777811732 | 26.11° C | 42% | 1024.5 hPa | - | - | - | - |
| 1777811431 | 26.67° C | 42% | 1024.6 hPa | - | - | - | - |
| 1777811132 | 26.67° C | 43% | 1024.5 hPa | - | - | - | - |
| 1777810832 | 26.67° C | 43% | 1024.4 hPa | - | - | - | - |
| 1777810532 | 26.67° C | 43% | 1024.5 hPa | - | - | - | - |
| 1777810232 | 26.67° C | 42% | 1024.5 hPa | - | - | - | - |
| 1777809932 | 26.67° C | 43% | 1024.5 hPa | - | - | - | - |
| 1777809632 | 26.67° C | 45% | 1024.3 hPa | - | - | - | - |
| 1777809332 | 26.67° C | 47% | 1024.3 hPa | - | - | - | - |
| 1777809031 | 26.11° C | 51% | 1024.3 hPa | - | - | - | - |
| 1777808731 | 25.56° C | 51% | 1024.3 hPa | - | - | - | - |
| 1777808432 | 25.56° C | 51% | 1024.1 hPa | - | - | - | - |
| 1777808132 | 25.56° C | 51% | 1024 hPa | - | - | - | - |
| 1777807832 | 25° C | 52% | 1023.9 hPa | - | - | - | - |
| 1777807532 | 25° C | 47% | 1023.8 hPa | - | - | - | - |
| 1777807232 | 24.44° C | 51% | 1023.7 hPa | - | - | - | - |
| 1777806932 | 23.89° C | 51% | 1023.6 hPa | - | - | - | - |
| 1777806632 | 23.89° C | 53% | 1023.6 hPa | - | - | - | - |
| 1777806332 | 23.33° C | 50% | 1023.6 hPa | - | - | - | - |
| 1777806031 | 22.78° C | 52% | 1023.7 hPa | - | - | - | - |
* Rain since midnight (hover to see other rain measurements)
** Current wind speed in m/s (hover to see current wind gust speed)